Location: Rometta
(44.2000°N, 10.0500°E)
Time: 11:44:06
(UTC+00:00)

Cosmos 1818 - Pass Details

Date: 23 May 2021
Orbit: 771 x 802 km, 65.0° (Epoch: 15 June)

Event Time Altitude Azimuth Distance (km) Brightness Sun altitude
Rises 21:13:33 0° 305° (NW) 3,316 8.0 -19.2°
Reaches altitude 10° 21:17:52 10° 273° (W) 2,376 6.5 -19.6°
Maximum altitude 21:19:30 11° 256° (WSW) 2,278 6.1 -19.7°
Drops below altitude 10° 21:21:07 10° 238° (WSW) 2,367 6.0 -19.9°
Enters shadow 21:23:17 - 219° (SW) 2,734 6.1 -20.1°
